Regional Weather Roundup
Issued by NWS

Home | Current Version | Previous Version | Text Only | Print | Product List | Glossary Off
Versions: 1 2 3 4 5 6 7 8 9 10 11 12 13 14 15 16 17 18 19 20 21 22 23 24 25 26 27 28 29 30 31 32 33 34 35 36 37 38 39 40 41 42 43 44 45 46 47 48 49 50

000
ASUS43 KOAX 220402
RWRNE

WEATHER ROUNDUP FOR NEBRASKA
NATIONAL WEATHER SERVICE OMAHA NE
1000 PM CST SAT JAN 21 2017

NOTES: SATELLITE DATA IS BEING USED TO AUGMENT CLOUD COVER ABOVE
       12000 FEET.
       "FAIR" INDICATES FEW OR NO CLOUDS BELOW 12,000 FEET WITH NO
       SIGNIFICANT WEATHER AND/OR OBSTRUCTIONS TO VISIBILITY.

  * THESE STATIONS DO NOT REPORT WEATHER SUCH AS RAIN...SNOW OR FOG.

NEZ001>004-019>022-054>056-220500-
NEBRASKA PANHANDLE

CITY           SKY/WX    TMP DP  RH WIND       PRES   REMARKS
SCOTTSBLUFF    CLEAR     29  25  85 N6        29.60R WCI  23
ALLIANCE       CLEAR     24  20  84 NW6       29.60R WCI  17
CHADRON        PTCLDY    25  22  88 W5        29.63R WCI  19
SIDNEY         CLOUDY    30  26  85 W5        29.60R WCI  25
$$

NEZ057>060-069>072-079>082-220500-
SOUTHWEST NEBRASKA

CITY           SKY/WX    TMP DP  RH WIND       PRES   REMARKS
NORTH PLATTE   CLEAR     30  26  85 NW3       29.59R
IMPERIAL       CLOUDY    33  26  75 NW7       29.59R WCI  27
LEXINGTON      CLEAR     30  28  91 NW3       29.57R
MCCOOK         CLEAR     32  26  78 NW12      29.57R WCI  23
OGALLALA       CLOUDY    30  27  88 W3        29.60R
$$

NEZ005>010-023>029-035>040-094-220500-
NORTH CENTRAL NEBRASKA

CITY           SKY/WX    TMP DP  RH WIND       PRES   REMARKS
VALENTINE      CLEAR     26  24  92 W8        29.60R WCI  18
AINSWORTH      CLEAR     28  27  98 W5        29.59R WCI  22
BROKEN BOW     CLEAR     34  30  85 N10       29.57R WCI  26
O`NEILL        CLEAR     33  29  86 W5        29.58R WCI  28
ORD            CLEAR     31  27  85 NW5       29.56R WCI  26
THEDFORD       PTCLDY    30  28  93 W3        29.60R
$$

NEZ041-046>049-061>064-073>077-083>087-220500-
SOUTH CENTRAL NEBRASKA

CITY           SKY/WX    TMP DP  RH WIND       PRES   REMARKS
GRAND ISLAND   CLEAR     32  32 100 CALM      29.56S FOG
AURORA         FOG       32  32 100 CALM      29.55R VSB 1/2
HASTINGS       CLOUDY    32  31  96 N3        29.56R FOG
HEBRON         CLEAR     31  31 100 CALM      29.55R
HOLDREGE       CLEAR     35  33  92 N3        29.55R
KEARNEY *      CLOUDY   N/A N/A N/A MISG        N/A
YORK           FOG       34  34 100 CALM      29.55S VSB 1/2
$$

NEZ011>018-030>034-042>045-220500-
NORTHEAST NEBRASKA

CITY           SKY/WX    TMP DP  RH WIND       PRES   REMARKS
NORFOLK        CLEAR     28  26  92 W3        29.55R
ALBION         CLEAR     31  27  83 NW5       29.57R WCI  27
BLAIR          CLEAR     41  38  87 CALM      29.54S
FREMONT        CLEAR     32  32 100 CALM      29.56R
TEKAMAH        CLEAR     34  31  88 N12       29.57R WCI  25
WAYNE          CLEAR     28  28  99 CALM      29.57R FOG
$$

NEZ050>053-065>068-078-088>093-220500-
SOUTHEAST NEBRASKA

CITY           SKY/WX    TMP DP  RH WIND       PRES   REMARKS
LINCOLN        CLEAR     30  29  96 CALM      29.57R
OMAHA EPPLEY   CLEAR     34  29  82 CALM      29.55R
BEATRICE       CLOUDY    35  34  99 CALM      29.55R
FALLS CITY     PTCLDY    39  37  92 CALM      29.54R
NEBRASKA CITY  CLEAR     41  35  80 CALM      29.55S
PLATTSMOUTH    CLEAR     41  34  76 CALM      29.55R
$$

NEZ044-045-051>053-067-220500-
OMAHA AREA

CITY           SKY/WX    TMP DP  RH WIND       PRES   REMARKS
OMAHA EPPLEY   CLEAR     34  29  82 CALM      29.55R
BLAIR          CLEAR     41  38  87 CALM      29.54S
FREMONT        CLEAR     32  32 100 CALM      29.56R
MILLARD        CLEAR     34  33  96 CALM      29.55S
OFFUTT AFB     CLEAR     31  31 100 NW3       29.55R
PLATTSMOUTH    CLEAR     41  34  76 CALM      29.55R
WAHOO          FAIR      33  32  96 CALM      29.56R
$$




USA.gov is the U.S. government's official web portal to all federal, state and local government web resources and services.